| time (UTC) | temp F | wind direction | speed knots | gust knots | rain 1hr in | rain 24hr in | rain mn in | humidity % | barometer mb |
| 20260905225007 | 56 | 262 | 1.7 | 7.8 | 0.01 | 0.02 | 0.01 | 85 | 1014.4 |
| 20260905224507 | 56 | 312 | 1.7 | 10.4 | 0.01 | 0.02 | 0.01 | 84 | 1014.3 |
| 20260905224008 | 56 | 258 | 2.6 | 10.4 | 0.00 | 0.01 | 0.00 | 84 | 1014.2 |
| 20260905223508 | 56 | 281 | 1.7 | 14.8 | 0.00 | 0.01 | 0.00 | 84 | 1014.1 |
| 20260905223003 | 56 | 279 | 3.5 | 14.8 | 0.00 | 0.01 | 0.00 | 84 | 1014.1 |
| 20260905222503 | 56 | 155 | 2.6 | 10.4 | 0.00 | 0.01 | 0.00 | 83 | 1014.1 |
| 20260905222002 | 57 | 120 | 1.7 | 10.4 | 0.00 | 0.01 | 0.00 | 83 | 1014.0 |
| 20260905221501 | 57 | 298 | 0.9 | 7.8 | 0.00 | 0.01 | 0.00 | 83 | 1013.9 |
| 20260905221101 | 57 | 231 | 3.5 | 8.7 | 0.00 | 0.01 | 0.00 | 83 | 1013.7 |
| 20260905220559 | 57 | 182 | 1.7 | 9.6 | 0.00 | 0.01 | 0.00 | 83 | 1013.7 |
| 20260905220059 | 57 | 13 | 1.7 | 9.6 | 0.00 | 0.01 | 0.00 | 82 | 1013.7 |
| 20260905215557 | 57 | 267 | 4.3 | 12.2 | 0.00 | 0.01 | 0.01 | 82 | 1013.6 |
| 20260905215058 | 57 | 257 | 3.5 | 12.2 | 0.00 | 0.01 | 0.01 | 82 | 1013.5 |
| 20260905214604 | 57 | 180 | 3.5 | 10.4 | 0.00 | 0.01 | 0.01 | 82 | 1013.4 |
| 20260905214057 | 58 | 296 | 3.5 | 11.3 | 0.00 | 0.01 | 0.01 | 81 | 1013.4 |
| 20260905213556 | 58 | 197 | 3.5 | 11.3 | 0.00 | 0.01 | 0.01 | 81 | 1013.3 |
| 20260905213055 | 58 | 290 | 1.7 | 7.8 | 0.00 | 0.01 | 0.01 | 81 | 1013.3 |
| 20260905212557 | 58 | 179 | 3.5 | 10.4 | 0.00 | 0.01 | 0.01 | 81 | 1013.1 |
| 20260905212053 | 58 | 238 | 1.7 | 10.4 | 0.00 | 0.01 | 0.01 | 81 | 1013.2 |
| 20260905211554 | 58 | 260 | 3.5 | 9.6 | 0.00 | 0.01 | 0.01 | 81 | 1012.9 |
| 20260905211054 | 58 | 275 | 3.5 | 12.2 | 0.00 | 0.01 | 0.01 | 81 | 1013.0 |
| 20260905210552 | 58 | 277 | 1.7 | 12.2 | 0.00 | 0.01 | 0.01 | 81 | 1012.8 |
| 20260905210104 | 58 | 267 | 3.5 | 10.4 | 0.00 | 0.01 | 0.01 | 81 | 1012.8 |
| 20260905205552 | 58 | 211 | 3.5 | 9.6 | 0.00 | 0.01 | 0.01 | 81 | 1012.8 |
| 20260905205052 | 58 | 185 | 2.6 | 11.3 | 0.00 | 0.01 | 0.01 | 81 | 1012.8 |
| 20260905204551 | 58 | 186 | 3.5 | 13.9 | 0.00 | 0.01 | 0.01 | 81 | 1012.7 |
| 20260905204051 | 58 | 276 | 3.5 | 9.6 | 0.00 | 0.01 | 0.01 | 81 | 1012.7 |
| 20260905203551 | 58 | 183 | 2.6 | 11.3 | 0.00 | 0.01 | 0.01 | 81 | 1012.6 |
| 20260905203050 | 58 | 43 | 4.3 | 12.2 | 0.00 | 0.01 | 0.01 | 81 | 1012.4 |
| 20260905202549 | 58 | 202 | 3.5 | 11.3 | 0.00 | 0.01 | 0.01 | 81 | 1012.4 |
| 20260905202048 | 57 | 306 | 3.5 | 9.6 | 0.00 | 0.01 | 0.01 | 82 | 1012.3 |
| 20260905201548 | 57 | 190 | 3.5 | 9.6 | 0.00 | 0.01 | 0.01 | 82 | 1012.3 |
| 20260905201047 | 57 | 308 | 4.3 | 10.4 | 0.00 | 0.01 | 0.01 | 82 | 1012.3 |
| 20260905200546 | 57 | 242 | 3.5 | 9.6 | 0.00 | 0.01 | 0.01 | 83 | 1012.1 |
| 20260905200053 | 57 | 275 | 1.7 | 7.8 | 0.00 | 0.01 | 0.01 | 83 | 1012.0 |
| 20260905195550 | 57 | 294 | 2.6 | 8.7 | 0.00 | 0.01 | 0.01 | 83 | 1012.1 |
| 20260905195045 | 57 | 271 | 1.7 | 8.7 | 0.00 | 0.01 | 0.01 | 82 | 1012.1 |
| 20260905194547 | 57 | 202 | 2.6 | 11.3 | 0.00 | 0.01 | 0.01 | 82 | 1011.8 |
| 20260905194044 | 57 | 292 | 2.6 | 11.3 | 0.00 | 0.01 | 0.01 | 82 | 1011.9 |
| 20260905193543 | 57 | 238 | 3.5 | 11.3 | 0.00 | 0.01 | 0.01 | 82 | 1011.8 |
| 20260905193044 | 57 | 168 | 1.7 | 9.6 | 0.00 | 0.01 | 0.01 | 82 | 1011.8 |
| 20260905192542 | 57 | 311 | 2.6 | 13.0 | 0.00 | 0.01 | 0.01 | 82 | 1011.7 |
| 20260905192040 | 57 | 209 | 4.3 | 13.0 | 0.00 | 0.01 | 0.01 | 82 | 1011.6 |
| 20260905191542 | 57 | 198 | 2.6 | 8.7 | 0.00 | 0.01 | 0.01 | 82 | 1011.4 |
| 20260905191040 | 57 | 29 | 3.5 | 11.3 | 0.00 | 0.01 | 0.01 | 82 | 1011.3 |
| 20260905190540 | 58 | 170 | 3.5 | 12.2 | 0.00 | 0.01 | 0.01 | 82 | 1011.3 |
| 20260905190046 | 57 | 306 | 3.5 | 12.2 | 0.00 | 0.01 | 0.01 | 82 | 1011.2 |
| 20260905185543 | 57 | 360 | 3.5 | 12.2 | 0.00 | 0.02 | 0.01 | 82 | 1011.3 |
| 20260905185039 | 58 | 254 | 3.5 | 13.0 | 0.00 | 0.02 | 0.01 | 82 | 1011.2 |
| 20260905184540 | 58 | 55 | 3.5 | 9.6 | 0.00 | 0.02 | 0.01 | 81 | 1011.1 |
| 20260905184041 | 58 | 185 | 4.3 | 9.6 | 0.00 | 0.02 | 0.01 | 81 | 1011.1 |
| 20260905183538 | 58 | 324 | 3.5 | 13.0 | 0.00 | 0.02 | 0.01 | 80 | 1011.0 |
| 20260905183038 | 58 | 190 | 3.5 | 15.6 | 0.00 | 0.02 | 0.01 | 80 | 1011.0 |
| 20260905182536 | 58 | 243 | 3.5 | 15.6 | 0.00 | 0.02 | 0.01 | 79 | 1010.8 |
| 20260905182040 | 58 | 291 | 2.6 | 13.9 | 0.00 | 0.02 | 0.01 | 79 | 1010.8 |
| 20260905181535 | 58 | 261 | 4.3 | 13.9 | 0.00 | 0.02 | 0.01 | 78 | 1010.7 |
| 20260905181034 | 58 | 275 | 3.5 | 13.9 | 0.00 | 0.02 | 0.01 | 78 | 1010.6 |
| 20260905180533 | 58 | 298 | 4.3 | 12.2 | 0.00 | 0.02 | 0.01 | 78 | 1010.3 |
| 20260905180133 | 58 | 182 | 4.3 | 12.2 | 0.00 | 0.02 | 0.01 | 78 | 1010.2 |
| 20260905175532 | 59 | 273 | 4.3 | 13.9 | 0.00 | 0.02 | 0.01 | 77 | 1010.2 |
| 20260905175031 | 59 | 269 | 4.3 | 13.9 | 0.00 | 0.02 | 0.01 | 77 | 1010.1 |
| 20260905174530 | 59 | 242 | 5.2 | 12.2 | 0.00 | 0.02 | 0.01 | 76 | 1010.0 |
| 20260905174030 | 60 | 192 | 3.5 | 13.0 | 0.00 | 0.02 | 0.01 | 76 | 1009.9 |
| 20260905173531 | 60 | 273 | 4.3 | 20.0 | 0.00 | 0.02 | 0.01 | 76 | 1009.9 |
| 20260905173030 | 59 | 300 | 4.3 | 20.0 | 0.00 | 0.02 | 0.01 | 75 | 1010.0 |
| 20260905172529 | 59 | 5 | 4.3 | 12.2 | 0.00 | 0.02 | 0.01 | 75 | 1009.9 |
| 20260905172030 | 59 | 321 | 3.5 | 13.9 | 0.00 | 0.02 | 0.01 | 75 | 1009.9 |
| 20260905171545 | 60 | 281 | 3.5 | 13.9 | 0.00 | 0.02 | 0.01 | 75 | 1010.0 |
| 20260905171028 | 60 | 5 | 3.5 | 13.9 | 0.00 | 0.02 | 0.01 | 74 | 1009.7 |
| 20260905170528 | 60 | 246 | 2.6 | 13.0 | 0.00 | 0.02 | 0.01 | 74 | 1009.7 |
| 20260905170028 | 60 | 205 | 4.3 | 13.9 | 0.00 | 0.02 | 0.01 | 74 | 1009.6 |
| 20260905165528 | 60 | 268 | 3.5 | 15.6 | 0.00 | 0.02 | 0.01 | 74 | 1009.5 |
| 20260905165027 | 60 | 302 | 5.2 | 15.6 | 0.00 | 0.02 | 0.01 | 75 | 1009.6 |
| 20260905164526 | 60 | 259 | 4.3 | 14.8 | 0.00 | 0.02 | 0.01 | 74 | 1009.4 |
| 20260905164025 | 60 | 251 | 4.3 | 14.8 | 0.00 | 0.02 | 0.01 | 74 | 1009.4 |
| 20260905163525 | 60 | 205 | 2.6 | 9.6 | 0.00 | 0.02 | 0.01 | 73 | 1009.2 |
| 20260905163025 | 60 | 225 | 2.6 | 16.5 | 0.00 | 0.02 | 0.01 | 73 | 1009.2 |
| 20260905162523 | 60 | 281 | 3.5 | 16.5 | 0.00 | 0.02 | 0.01 | 74 | 1009.0 |
| 20260905162123 | 60 | 247 | 4.3 | 17.4 | 0.00 | 0.02 | 0.01 | 73 | 1009.1 |
| 20260905161525 | 61 | 331 | 6.1 | 17.4 | 0.00 | 0.02 | 0.01 | 72 | 1009.0 |
| 20260905161025 | 61 | 313 | 3.5 | 14.8 | 0.00 | 0.02 | 0.01 | 72 | 1008.9 |
| 20260905160521 | 61 | 69 | 5.2 | 13.0 | 0.00 | 0.02 | 0.01 | 71 | 1008.8 |
| 20260905160034 | 61 | 239 | 4.3 | 12.2 | 0.00 | 0.02 | 0.01 | 71 | 1008.9 |
| 20260905155524 | 61 | 279 | 3.5 | 20.9 | 0.00 | 0.02 | 0.01 | 70 | 1008.7 |
| 20260905155020 | 61 | 254 | 3.5 | 20.9 | 0.00 | 0.02 | 0.01 | 70 | 1008.8 |
| 20260905154520 | 62 | 190 | 3.5 | 16.5 | 0.00 | 0.02 | 0.01 | 69 | 1008.5 |
| 20260905154021 | 62 | 254 | 6.1 | 16.5 | 0.00 | 0.02 | 0.01 | 69 | 1008.6 |
| 20260905153519 | 62 | 84 | 4.3 | 17.4 | 0.00 | 0.02 | 0.01 | 69 | 1008.4 |
| 20260905153022 | 62 | 284 | 6.1 | 17.4 | 0.00 | 0.02 | 0.01 | 68 | 1008.4 |
| 20260905152517 | 62 | 305 | 2.6 | 11.3 | 0.00 | 0.02 | 0.01 | 69 | 1008.4 |
| 20260905152018 | 62 | 213 | 2.6 | 15.6 | 0.00 | 0.02 | 0.01 | 68 | 1008.4 |
| 20260905151516 | 62 | 336 | 4.3 | 13.0 | 0.00 | 0.02 | 0.01 | 67 | 1008.3 |
| 20260905151016 | 63 | 242 | 5.2 | 13.0 | 0.00 | 0.02 | 0.01 | 67 | 1008.2 |
| 20260905150514 | 63 | 279 | 5.2 | 13.0 | 0.00 | 0.02 | 0.01 | 68 | 1008.2 |
| 20260905150014 | 62 | 300 | 3.5 | 12.2 | 0.00 | 0.02 | 0.01 | 68 | 1008.2 |
| 20260905145519 | 62 | 291 | 5.2 | 12.2 | 0.00 | 0.02 | 0.01 | 68 | 1008.1 |
| 20260905145114 | 63 | 271 | 3.5 | 12.2 | 0.00 | 0.02 | 0.01 | 70 | 1008.2 |
| 20260905144524 | 63 | 280 | 3.5 | 13.9 | 0.00 | 0.02 | 0.01 | 69 | 1008.0 |
| 20260905144018 | 63 | 220 | 3.5 | 14.8 | 0.00 | 0.02 | 0.01 | 70 | 1008.0 |
| 20260905143516 | 63 | 182 | 3.5 | 14.8 | 0.00 | 0.02 | 0.01 | 69 | 1008.0 |
| 20260905143013 | 63 | 217 | 4.3 | 17.4 | 0.00 | 0.02 | 0.01 | 69 | 1008.0 |
| 20260905142514 | 63 | 273 | 5.2 | 17.4 | 0.00 | 0.02 | 0.01 | 70 | 1008.2 |
| 20260905142012 | 63 | 209 | 3.5 | 17.4 | 0.00 | 0.02 | 0.01 | 70 | 1008.1 |
| 20260905141514 | 63 | 297 | 5.2 | 17.4 | 0.00 | 0.02 | 0.01 | 69 | 1008.0 |
| 20260905141011 | 64 | 195 | 4.3 | 14.8 | 0.00 | 0.02 | 0.01 | 66 | 1007.9 |
| 20260905140512 | 65 | 170 | 1.7 | 10.4 | 0.00 | 0.02 | 0.01 | 67 | 1007.7 |
| 20260905140018 | 65 | 105 | 2.6 | 10.4 | 0.00 | 0.02 | 0.01 | 66 | 1007.7 |
| 20260905135509 | 65 | 279 | 5.2 | 11.3 | 0.00 | 0.02 | 0.01 | 65 | 1007.6 |
| 20260905135009 | 65 | 227 | 5.2 | 12.2 | 0.00 | 0.02 | 0.01 | 65 | 1007.6 |
| 20260905134508 | 65 | 329 | 2.6 | 14.8 | 0.00 | 0.02 | 0.01 | 67 | 1007.5 |
| 20260905134008 | 65 | 232 | 3.5 | 14.8 | 0.00 | 0.02 | 0.01 | 64 | 1007.5 |
| 20260905133507 | 66 | 277 | 4.3 | 17.4 | 0.00 | 0.02 | 0.01 | 65 | 1007.6 |
| 20260905133008 | 66 | 301 | 4.3 | 17.4 | 0.00 | 0.02 | 0.01 | 65 | 1007.3 |
| 20260905132504 | 65 | 273 | 5.2 | 13.9 | 0.00 | 0.02 | 0.01 | 66 | 1007.2 |
| 20260905132003 | 65 | 194 | 6.1 | 13.9 | 0.00 | 0.02 | 0.01 | 66 | 1007.3 |
| 20260905131502 | 65 | 180 | 5.2 | 13.9 | 0.00 | 0.02 | 0.01 | 68 | 1007.3 |
| 20260905131002 | 65 | 273 | 5.2 | 11.3 | 0.01 | 0.02 | 0.01 | 67 | 1007.3 |
| 20260905130503 | 65 | 334 | 2.6 | 13.9 | 0.01 | 0.02 | 0.01 | 69 | 1007.2 |
| 20260905130101 | 64 | 300 | 3.5 | 13.9 | 0.01 | 0.02 | 0.01 | 71 | 1007.2 |
| 20260905125602 | 64 | 256 | 1.7 | 11.3 | 0.01 | 0.02 | 0.01 | 71 | 1007.1 |
| 20260905125100 | 64 | 309 | 4.3 | 11.3 | 0.01 | 0.02 | 0.01 | 72 | 1007.2 |
| 20260905124600 | 63 | 289 | 2.6 | 13.0 | 0.01 | 0.02 | 0.01 | 76 | 1007.1 |
| 20260905124058 | 62 | 188 | 1.7 | 13.0 | 0.01 | 0.02 | 0.01 | 77 | 1007.1 |
| 20260905123558 | 62 | 298 | 4.3 | 13.0 | 0.01 | 0.02 | 0.01 | 78 | 1007.2 |
| 20260905123104 | 61 | 292 | 4.3 | 13.0 | 0.01 | 0.02 | 0.01 | 81 | 1007.3 |
| 20260905122557 | 61 | 308 | 2.6 | 10.4 | 0.01 | 0.02 | 0.01 | 83 | 1007.2 |
| 20260905122100 | 62 | 176 | 3.5 | 13.9 | 0.01 | 0.02 | 0.01 | 79 | 1007.2 |
| 20260905121600 | 63 | 227 | 4.3 | 13.9 | 0.01 | 0.02 | 0.01 | 73 | 1007.2 |
| 20260905121100 | 65 | 297 | 3.5 | 15.6 | 0.01 | 0.02 | 0.01 | 70 | 1007.1 |
| 20260905120555 | 64 | 209 | 2.6 | 13.0 | 0.00 | 0.02 | 0.00 | 71 | 1006.9 |
| 20260905120106 | 64 | 190 | 3.5 | 13.0 | 0.00 | 0.02 | 0.00 | 70 | 1006.8 |
| 20260905115554 | 64 | 258 | 2.6 | 14.8 | 0.00 | 0.02 | 0.00 | 71 | 1006.7 |
| 20260905115157 | 63 | 229 | 3.5 | 14.8 | 0.00 | 0.02 | 0.00 | 71 | 1006.6 |
| 20260905114607 | 63 | 293 | 4.3 | 13.9 | 0.00 | 0.02 | 0.00 | 73 | 1006.6 |
| 20260905114054 | 63 | 270 | 4.3 | 13.9 | 0.00 | 0.02 | 0.00 | 71 | 1006.7 |
| 20260905113553 | 64 | 290 | 3.5 | 10.4 | 0.00 | 0.02 | 0.00 | 72 | 1006.6 |
| 20260905113057 | 64 | 305 | 2.6 | 13.0 | 0.00 | 0.02 | 0.00 | 72 | 1006.6 |
| 20260905112550 | 63 | 264 | 3.5 | 10.4 | 0.00 | 0.02 | 0.00 | 73 | 1006.7 |
| 20260905112049 | 63 | 288 | 3.5 | 13.9 | 0.00 | 0.02 | 0.00 | 75 | 1006.5 |
| 20260905111634 | 62 | 227 | 2.6 | 13.9 | 0.00 | 0.02 | 0.00 | 77 | 1006.6 |
| 20260905111047 | 62 | 41 | 4.3 | 14.8 | 0.00 | 0.02 | 0.00 | 79 | 1006.5 |
| 20260905110545 | 61 | 161 | 4.3 | 14.8 | 0.00 | 0.02 | 0.00 | 79 | 1006.5 |
| 20260905110045 | 61 | 140 | 4.3 | 10.4 | 0.00 | 0.02 | 0.00 | 78 | 1006.4 |
| 20260905105546 | 61 | 234 | 3.5 | 10.4 | 0.00 | 0.02 | 0.00 | 78 | 1006.4 |
| 20260905105045 | 61 | 195 | 3.5 | 8.7 | 0.00 | 0.02 | 0.00 | 78 | 1006.4 |
| 20260905104544 | 61 | 198 | 2.6 | 8.7 | 0.00 | 0.02 | 0.00 | 76 | 1006.2 |
| 20260905104043 | 62 | 257 | 2.6 | 7.8 | 0.00 | 0.02 | 0.00 | 77 | 1006.2 |
| 20260905103544 | 61 | 251 | 1.7 | 13.9 | 0.00 | 0.02 | 0.00 | 77 | 1006.2 |
| 20260905103043 | 61 | 141 | 3.5 | 13.9 | 0.00 | 0.02 | 0.00 | 77 | 1006.2 |
| 20260905102547 | 61 | 200 | 4.3 | 11.3 | 0.00 | 0.02 | 0.00 | 76 | 1006.1 |
| 20260905102142 | 61 | 98 | 2.6 | 11.3 | 0.00 | 0.02 | 0.00 | 76 | 1006.1 |
| 20260905101543 | 62 | 61 | 3.5 | 11.3 | 0.00 | 0.02 | 0.00 | 76 | 1006.1 |
| 20260905101040 | 62 | 135 | 3.5 | 10.4 | 0.00 | 0.02 | 0.00 | 77 | 1006.0 |
| 20260905100540 | 61 | 196 | 3.5 | 13.0 | 0.00 | 0.02 | 0.00 | 77 | 1006.0 |
| 20260905100040 | 61 | 179 | 5.2 | 13.0 | 0.00 | 0.02 | 0.00 | 78 | 1005.9 |
| 20260905095539 | 61 | 57 | 3.5 | 12.2 | 0.00 | 0.02 | 0.00 | 78 | 1006.0 |
| 20260905095038 | 61 | 285 | 3.5 | 10.4 | 0.00 | 0.02 | 0.00 | 78 | 1005.9 |
| 20260905094539 | 62 | 294 | 3.5 | 13.0 | 0.00 | 0.02 | 0.00 | 77 | 1005.9 |
| 20260905094040 | 62 | 220 | 4.3 | 13.0 | 0.00 | 0.02 | 0.00 | 76 | 1005.8 |
| 20260905093537 | 62 | 257 | 2.6 | 9.6 | 0.00 | 0.02 | 0.00 | 78 | 1005.8 |
| 20260905093041 | 62 | 273 | 3.5 | 11.3 | 0.00 | 0.02 | 0.00 | 77 | 1005.7 |
| 20260905092534 | 62 | 237 | 4.3 | 11.3 | 0.00 | 0.02 | 0.00 | 78 | 1005.8 |
| 20260905092034 | 62 | 173 | 1.7 | 11.3 | 0.00 | 0.02 | 0.00 | 78 | 1005.8 |
| 20260905091534 | 62 | 250 | 3.5 | 10.4 | 0.00 | 0.02 | 0.00 | 80 | 1005.7 |
| 20260905091032 | 61 | 341 | 2.6 | 9.6 | 0.00 | 0.02 | 0.00 | 81 | 1005.7 |
| 20260905090531 | 61 | 338 | 3.5 | 9.6 | 0.00 | 0.02 | 0.00 | 81 | 1005.8 |
| 20260905090030 | 60 | 294 | 2.6 | 9.6 | 0.00 | 0.02 | 0.00 | 82 | 1005.7 |
| 20260905085530 | 60 | 290 | 3.5 | 9.6 | 0.00 | 0.02 | 0.00 | 80 | 1005.7 |
| 20260905085028 | 60 | 298 | 2.6 | 8.7 | 0.00 | 0.02 | 0.00 | 82 | 1005.6 |
| 20260905084527 | 59 | 268 | 1.7 | 17.4 | 0.00 | 0.02 | 0.00 | 85 | 1005.5 |
| 20260905084026 | 59 | 9 | 2.6 | 17.4 | 0.00 | 0.02 | 0.00 | 85 | 1005.6 |
| 20260905083529 | 59 | 257 | 3.5 | 9.6 | 0.00 | 0.02 | 0.00 | 85 | 1005.5 |
| 20260905083024 | 59 | 261 | 1.7 | 6.1 | 0.00 | 0.02 | 0.00 | 85 | 1005.5 |
| 20260905082523 | 59 | 251 | 1.7 | 6.1 | 0.00 | 0.02 | 0.00 | 85 | 1005.4 |
| 20260905082023 | 59 | 178 | 2.6 | 8.7 | 0.00 | 0.02 | 0.00 | 86 | 1005.4 |
| 20260905081522 | 59 | 208 | 2.6 | 9.6 | 0.00 | 0.02 | 0.00 | 86 | 1005.4 |
| 20260905081021 | 59 | 182 | 3.5 | 9.6 | 0.00 | 0.02 | 0.00 | 86 | 1005.3 |
| 20260905080521 | 59 | 301 | 1.7 | 8.7 | 0.00 | 0.02 | 0.00 | 87 | 1005.2 |
| 20260905080028 | 58 | 273 | 2.6 | 11.3 | 0.00 | 0.02 | 0.00 | 87 | 1005.2 |
| 20260905075518 | 58 | 223 | 2.6 | 9.6 | 0.00 | 0.02 | 0.00 | 88 | 1005.2 |
| 20260905075018 | 58 | 293 | 2.6 | 9.6 | 0.00 | 0.02 | 0.00 | 88 | 1005.1 |
| 20260905074516 | 58 | 214 | 2.6 | 9.6 | 0.00 | 0.02 | 0.00 | 88 | 1005.1 |
| 20260905074014 | 58 | 270 | 2.6 | 9.6 | 0.00 | 0.02 | 0.00 | 89 | 1005.0 |
| 20260905073514 | 58 | 306 | 1.7 | 8.7 | 0.00 | 0.02 | 0.00 | 90 | 1004.9 |
| 20260905073013 | 57 | 313 | 2.6 | 7.8 | 0.00 | 0.02 | 0.00 | 90 | 1004.9 |
| 20260905072511 | 57 | 245 | 2.6 | 8.7 | 0.00 | 0.02 | 0.00 | 90 | 1004.9 |
| 20260905072010 | 57 | 290 | 0.9 | 8.7 | 0.00 | 0.02 | 0.00 | 91 | 1004.9 |
| 20260905071509 | 56 | 266 | 2.6 | 8.7 | 0.00 | 0.02 | 0.00 | 92 | 1004.9 |
| 20260905071011 | 56 | 287 | 1.7 | 8.7 | 0.00 | 0.02 | 0.00 | 92 | 1005.0 |
| 20260905070508 | 56 | 285 | 2.6 | 8.7 | 0.00 | 0.02 | 0.00 | 92 | 1004.8 |
| 20260905070019 | 56 | 39 | 0.9 | 7.0 | 0.00 | 0.02 | 0.00 | 92 | 1004.9 |
| 20260905065508 | 56 | 331 | 2.6 | 7.0 | 0.00 | 0.02 | 0.00 | 92 | 1004.8 |
| 20260905065010 | 56 | 166 | 0.9 | 7.0 | 0.00 | 0.02 | 0.00 | 92 | 1004.8 |
| 20260905064520 | 56 | 184 | 1.7 | 7.0 | 0.00 | 0.02 | 0.00 | 93 | 1004.8 |
| 20260905064005 | 56 | 266 | 1.7 | 9.6 | 0.00 | 0.02 | 0.00 | 93 | 1004.7 |
| 20260905063504 | 56 | 268 | 2.6 | 9.6 | 0.00 | 0.02 | 0.00 | 94 | 1004.7 |
| 20260905063004 | 55 | 215 | 0.9 | 7.0 | 0.00 | 0.02 | 0.00 | 94 | 1004.7 |
| 20260905062504 | 55 | 276 | 2.6 | 7.0 | 0.00 | 0.02 | 0.00 | 94 | 1004.7 |
| 20260905062000 | 55 | 281 | 1.7 | 7.0 | 0.00 | 0.02 | 0.00 | 95 | 1004.6 |
| 20260905061601 | 55 | 228 | 1.7 | 6.1 | 0.00 | 0.02 | 0.00 | 95 | 1004.7 |
| 20260905061058 | 55 | 257 | 1.7 | 6.1 | 0.00 | 0.02 | 0.00 | 95 | 1004.6 |
| 20260905060557 | 54 | 204 | 1.7 | 5.2 | 0.00 | 0.02 | 0.00 | 96 | 1004.6 |
| 20260905060058 | 54 | 194 | 1.7 | 4.3 | 0.00 | 0.02 | 0.00 | 95 | 1004.5 |
| 20260905055558 | 54 | 9 | 0.9 | 6.1 | 0.00 | 0.02 | 0.00 | 96 | 1004.5 |
| 20260905055057 | 53 | 336 | 0.9 | 6.1 | 0.00 | 0.02 | 0.00 | 95 | 1004.5 |
| 20260905054556 | 53 | 311 | 0.9 | 5.2 | 0.00 | 0.02 | 0.00 | 95 | 1004.4 |
| 20260905054056 | 53 | 281 | 0.9 | 6.1 | 0.00 | 0.02 | 0.00 | 95 | 1004.5 |
| 20260905053553 | 53 | 187 | 0.9 | 4.3 | 0.00 | 0.02 | 0.00 | 96 | 1004.4 |
| 20260905053053 | 53 | 254 | 1.7 | 4.3 | 0.00 | 0.02 | 0.00 | 96 | 1004.3 |
| 20260905052551 | 53 | 263 | 1.7 | 6.1 | 0.00 | 0.02 | 0.00 | 96 | 1004.3 |
| 20260905052051 | 53 | 140 | 1.7 | 8.7 | 0.00 | 0.02 | 0.00 | 96 | 1004.3 |
| 20260905051550 | 53 | 273 | 2.6 | 8.7 | 0.00 | 0.02 | 0.00 | 96 | 1004.2 |
| 20260905051049 | 53 | 311 | 2.6 | 7.0 | 0.00 | 0.02 | 0.00 | 96 | 1004.1 |
| 20260905050548 | 53 | 183 | 0.9 | 5.2 | 0.00 | 0.02 | 0.00 | 96 | 1004.1 |
| 20260905050054 | 53 | 299 | 1.7 | 5.2 | 0.00 | 0.02 | 0.00 | 96 | 1004.0 |
| 20260905045545 | 52 | 226 | 0.9 | 6.1 | 0.00 | 0.02 | 0.00 | 96 | 1004.1 |
| 20260905045045 | 52 | 275 | 0.9 | 6.1 | 0.00 | 0.02 | 0.00 | 96 | 1004.0 |
| 20260905044544 | 52 | 193 | 0.9 | 3.5 | 0.00 | 0.02 | 0.00 | 96 | 1003.9 |
| 20260905044045 | 52 | 212 | 0.9 | 3.5 | 0.00 | 0.02 | 0.00 | 96 | 1003.9 |
| 20260905043546 | 52 | 240 | 0.9 | 6.1 | 0.00 | 0.02 | 0.00 | 96 | 1003.8 |
| 20260905043041 | 52 | 305 | 1.7 | 6.1 | 0.00 | 0.02 | 0.00 | 96 | 1003.7 |
| 20260905042539 | 52 | 292 | 0.9 | 3.5 | 0.00 | 0.02 | 0.00 | 96 | 1003.7 |
| 20260905042039 | 53 | 327 | 0.9 | 5.2 | 0.00 | 0.02 | 0.00 | 96 | 1003.7 |
| 20260905041539 | 53 | 273 | 1.7 | 5.2 | 0.00 | 0.02 | 0.00 | 95 | 1003.6 |
| 20260905041038 | 53 | 263 | 0.9 | 6.1 | 0.00 | 0.02 | 0.00 | 96 | 1003.6 |
| 20260905040539 | 53 | 288 | 1.7 | 9.6 | 0.00 | 0.02 | 0.00 | 95 | 1003.6 |
| 20260905040038 | 53 | 171 | 2.6 | 9.6 | 0.00 | 0.02 | 0.00 | 95 | 1003.5 |
| 20260905035536 | 53 | 269 | 1.7 | 5.2 | 0.00 | 0.02 | 0.00 | 95 | 1003.5 |
| 20260905035036 | 53 | 213 | 0.9 | 3.5 | 0.00 | 0.02 | 0.00 | 95 | 1003.5 |
| 20260905034537 | 53 | 257 | 1.7 | 3.5 | 0.00 | 0.02 | 0.00 | 95 | 1003.4 |
| 20260905034039 | 53 | 303 | 0.9 | 4.3 | 0.00 | 0.02 | 0.00 | 95 | 1003.4 |
| 20260905033534 | 53 | 18 | 0.9 | 6.1 | 0.00 | 0.02 | 0.00 | 95 | 1003.3 |
| 20260905033034 | 53 | 209 | 0.9 | 6.1 | 0.00 | 0.02 | 0.00 | 95 | 1003.3 |
| 20260905032533 | 53 | 309 | 0.9 | 6.1 | 0.00 | 0.02 | 0.00 | 95 | 1003.2 |
| 20260905032032 | 53 | 248 | 0.9 | 6.1 | 0.00 | 0.02 | 0.00 | 95 | 1003.2 |
| 20260905031535 | 53 | 262 | 1.7 | 6.1 | 0.00 | 0.02 | 0.00 | 95 | 1003.1 |
| 20260905031031 | 53 | 219 | 0.9 | 6.1 | 0.00 | 0.02 | 0.00 | 95 | 1003.1 |
| 20260905030531 | 53 | 272 | 0.9 | 6.1 | 0.00 | 0.02 | 0.00 | 95 | 1003.0 |
| 20260905030031 | 53 | 117 | 0.9 | 6.1 | 0.00 | 0.02 | 0.00 | 95 | 1002.9 |
| 20260905025530 | 54 | 268 | 0.9 | 6.1 | 0.00 | 0.02 | 0.00 | 95 | 1003.0 |
| 20260905025032 | 54 | 277 | 1.7 | 10.4 | 0.00 | 0.02 | 0.00 | 95 | 1002.9 |
| 20260905024530 | 53 | 286 | 1.7 | 10.4 | 0.00 | 0.02 | 0.00 | 95 | 1002.9 |
| 20260905024029 | 53 | 256 | 0.9 | 7.8 | 0.00 | 0.02 | 0.00 | 95 | 1002.9 |
| 20260905023529 | 53 | 263 | 1.7 | 7.8 | 0.00 | 0.02 | 0.00 | 95 | 1003.0 |
| 20260905023027 | 53 | 215 | 0.9 | 7.0 | 0.00 | 0.02 | 0.00 | 95 | 1002.9 |
| 20260905022526 | 53 | 328 | 1.7 | 7.0 | 0.00 | 0.02 | 0.00 | 95 | 1002.8 |
| 20260905022026 | 53 | 338 | 0.9 | 5.2 | 0.00 | 0.02 | 0.00 | 95 | 1002.7 |
| 20260905021536 | 53 | 226 | 1.7 | 4.3 | 0.00 | 0.02 | 0.00 | 95 | 1002.6 |
| 20260905021024 | 53 | 327 | 0.9 | 4.3 | 0.00 | 0.02 | 0.00 | 95 | 1002.6 |
| 20260905020524 | 53 | 307 | 1.7 | 5.2 | 0.00 | 0.02 | 0.00 | 95 | 1002.6 |
| 20260905020027 | 53 | 188 | 0.9 | 7.0 | 0.00 | 0.02 | 0.00 | 95 | 1002.5 |
| 20260905015523 | 53 | 272 | 1.7 | 7.0 | 0.00 | 0.02 | 0.00 | 95 | 1002.5 |
| 20260905015023 | 53 | 192 | 0.9 | 6.1 | 0.00 | 0.02 | 0.00 | 95 | 1002.5 |
| 20260905014521 | 53 | 159 | 0.9 | 8.7 | 0.00 | 0.02 | 0.00 | 95 | 1002.4 |
| 20260905014021 | 54 | 298 | 1.7 | 8.7 | 0.00 | 0.02 | 0.00 | 95 | 1002.4 |
| 20260905013524 | 54 | 198 | 1.7 | 8.7 | 0.00 | 0.02 | 0.00 | 96 | 1002.3 |
| 20260905013024 | 54 | 238 | 3.5 | 8.7 | 0.00 | 0.02 | 0.00 | 95 | 1002.3 |
| 20260905012520 | 54 | 131 | 1.7 | 5.2 | 0.00 | 0.02 | 0.00 | 96 | 1002.2 |
| 20260905012019 | 54 | 194 | 0.9 | 7.0 | 0.00 | 0.02 | 0.00 | 96 | 1002.2 |
| 20260905011519 | 54 | 284 | 2.6 | 7.0 | 0.00 | 0.02 | 0.00 | 96 | 1002.2 |
| 20260905011019 | 54 | 275 | 0.9 | 7.0 | 0.00 | 0.02 | 0.00 | 96 | 1002.2 |
| 20260905010518 | 54 | 192 | 1.7 | 7.0 | 0.00 | 0.02 | 0.00 | 96 | 1002.1 |
| 20260905010023 | 54 | 277 | 1.7 | 7.8 | 0.00 | 0.02 | 0.00 | 96 | 1002.2 |
| 20260905005516 | 54 | 172 | 0.9 | 7.8 | 0.00 | 0.02 | 0.00 | 96 | 1002.1 |
| 20260905005017 | 54 | 286 | 0.9 | 6.1 | 0.00 | 0.02 | 0.00 | 96 | 1002.1 |
| 20260905004515 | 54 | 296 | 0.9 | 8.7 | 0.00 | 0.02 | 0.00 | 96 | 1002.0 |
| 20260905004015 | 54 | 190 | 2.6 | 8.7 | 0.00 | 0.02 | 0.00 | 96 | 1001.9 |
| 20260905003517 | 54 | 258 | 1.7 | 7.0 | 0.00 | 0.02 | 0.00 | 96 | 1001.9 |
| 20260905003015 | 54 | 305 | 1.7 | 6.1 | 0.00 | 0.02 | 0.00 | 96 | 1001.9 |
| 20260905002512 | 54 | 323 | 1.7 | 6.1 | 0.00 | 0.02 | 0.00 | 96 | 1001.8 |
| 20260905002013 | 54 | 294 | 1.7 | 7.0 | 0.00 | 0.02 | 0.00 | 96 | 1001.8 |
| 20260905001512 | 54 | 300 | 1.7 | 7.0 | 0.00 | 0.02 | 0.00 | 96 | 1001.7 |
| 20260905001011 | 54 | 139 | 0.9 | 4.3 | 0.00 | 0.02 | 0.00 | 96 | 1001.7 |
| 20260905000511 | 54 | 270 | 1.7 | 7.8 | 0.00 | 0.02 | 0.00 | 96 | 1001.6 |
| 20260905000014 | 54 | 286 | 1.7 | 7.8 | 0.00 | 0.02 | 0.00 | 96 | 1001.6 |
| 20260904235510 | 54 | 236 | 1.7 | 6.1 | 0.00 | 0.02 | 0.00 | 96 | 1001.6 |
| 20260904235009 | 54 | 174 | 0.9 | 6.1 | 0.00 | 0.02 | 0.00 | 96 | 1001.5 |
| 20260904234508 | 54 | 136 | 0.9 | 4.3 | 0.00 | 0.02 | 0.00 | 96 | 1001.5 |
| 20260904234009 | 54 | 205 | 0.0 | 5.2 | 0.00 | 0.02 | 0.00 | 96 | 1001.4 |
| 20260904233508 | 54 | 314 | 0.9 | 7.0 | 0.00 | 0.02 | 0.00 | 96 | 1001.4 |
| 20260904233008 | 54 | 225 | 1.7 | 7.0 | 0.00 | 0.02 | 0.00 | 96 | 1001.3 |
| 20260904232506 | 54 | 200 | 0.9 | 7.0 | 0.00 | 0.02 | 0.00 | 96 | 1001.4 |
| 20260904232008 | 54 | 252 | 1.7 | 7.8 | 0.00 | 0.02 | 0.00 | 96 | 1001.3 |
| 20260904231506 | 54 | 320 | 0.0 | 4.3 | 0.00 | 0.02 | 0.00 | 95 | 1001.3 |
| 20260904231005 | 54 | 299 | 0.9 | 7.0 | 0.00 | 0.02 | 0.00 | 95 | 1001.3 |
| 20260904230506 | 54 | 221 | 0.9 | 3.5 | 0.00 | 0.02 | 0.00 | 95 | 1001.3 |
| 20260904230005 | 54 | 299 | 0.9 | 3.5 | 0.00 | 0.02 | 0.00 | 95 | 1001.3 |
| 20260904225503 | 54 | 226 | 0.0 | 2.6 | 0.00 | 0.02 | 0.00 | 95 | 1001.2 |